Location: Observatory
(52.1446°N, 0.4624°W)
Time: 04:33:33
(UTC+01:00)

ISS - Pass Details

Date: 27 May 2019
Orbit: 407 x 418 km, 51.6° (Epoch: 20 June)

Event Time Altitude Azimuth Distance (km) Brightness Sun altitude
Rises 00:43:43 0° 281° (W) 2,364 0.3 -16.6°
Reaches altitude 10° 00:46:11 10° 264° (W) 1,499 -1.0 -16.6°
Enters shadow 00:47:23 16° 246° (WSW) 1,186 -1.7 -16.6°
